sat.trackr.live / text

‹ back to catalog

PVCC

NORAD 58025 · 2023-155K

PAYLOAD ACTIVE UNKNOWN

§ Identity

Operator
Country
BEL
Launch date
2023-10-09
Launch site
FRGUI
Launch vehicle
Mass (kg)
RCS (m²)

External: N2YO · Heavens-Above · Gunter

§ Orbital elements

Epoch: 2026-09-21T22:26:56.560704Z

Period
94.93 min
Inclination
97.5633°
Eccentricity
0.0005000
Mean motion
15.16913484 rev/d
Perigee alt
511.7 km
Apogee alt
518.6 km
Semi-major
6,893.3 km
B*
1.8807e-4
RAAN
341.2392°
Arg perigee
142.5255°
Mean anomaly
217.6328°
Rev number
16,264

§ Raw data

PVCC1 58025U 23155K   26264.93537686  .00003639  00000+0  18807-3 0  99902 58025  97.5633 341.2392 0005000 142.5255 217.6328 15.16913484162648

JSON: /api/v1/satellites/58025 · /tle

For live sub-satellite position, see the globe view (requires WebGL).

§ Visibility from observer

Set your observer location to see the next 7 days of passes ≥ 10°. The values pass through the URL so the page stays shareable.

No JS? Fill the form by hand. The geolocation button needs JavaScript.

§ Radio — SatNOGS DB

ModeDescriptionDownlinkUplink
BPSK S-Band Transmitter 2.221 GHz
BPSK X-Band transmitter 8.176 GHz

2 transmitters · refreshed weekly from db.satnogs.org